TimeAKDT,TemperatureF,Dew PointF,Humidity,Sea Level PressureIn,VisibilityMPH,Wind Direction,Wind SpeedMPH,Gust SpeedMPH,PrecipitationIn,Events,Conditions,WindDirDegrees,DateUTC
12:07 AM,28.4,24.8,86,30.00,4.0,WSW,8.1,-,0.00,Snow,Light Snow,240,2013-03-10 09:07:00
12:30 AM,28.4,24.8,86,30.01,6.2,West,9.2,-,0.00,,Overcast,260,2013-03-10 09:30:00
12:49 AM,26.6,24.8,93,30.02,6.0,West,8.1,-,0.00,Snow,Light Snow,260,2013-03-10 09:49:00
12:56 AM,28.0,24.1,85,30.04,5.0,West,8.1,-,0.00,Snow,Light Snow,260,2013-03-10 09:56:00
1:56 AM,27.0,21.9,81,30.06,9.0,West,9.2,-,0.00,,Overcast,260,2013-03-10 10:56:00
3:56 AM,25.0,19.9,81,30.08,10.0,West,11.5,-,N/A,,Overcast,280,2013-03-10 11:56:00
4:56 AM,23.0,16.0,74,30.09,10.0,West,8.1,-,N/A,,Overcast,260,2013-03-10 12:56:00
5:14 AM,21.2,15.8,80,30.06,10.0,WSW,6.9,-,N/A,,Overcast,250,2013-03-10 13:14:00
5:56 AM,18.0,12.9,81,30.09,10.0,West,3.5,-,N/A,,Overcast,260,2013-03-10 13:56:00
6:56 AM,15.1,12.9,91,30.11,10.0,Calm,Calm,-,N/A,,Clear,0,2013-03-10 14:56:00
7:47 AM,10.4,8.6,92,30.07,4.0,Calm,Calm,-,N/A,,Scattered Clouds,0,2013-03-10 15:47:00
7:54 AM,8.6,8.6,100,30.08,6.0,Calm,Calm,-,N/A,,Mostly Cloudy,0,2013-03-10 15:54:00
7:56 AM,8.1,7.0,95,30.11,4.0,Calm,Calm,-,N/A,,Mostly Cloudy,0,2013-03-10 15:56:00
7:59 AM,8.6,6.8,92,30.08,1.5,Calm,Calm,-,N/A,,Mostly Cloudy,0,2013-03-10 15:59:00
8:07 AM,10.4,6.8,85,30.08,0.5,Calm,Calm,-,N/A,Fog,Light Freezing Fog,0,2013-03-10 16:07:00
8:56 AM,12.9,10.9,92,30.12,0.2,Calm,Calm,-,N/A,Fog,Light Freezing Fog,0,2013-03-10 16:56:00
9:56 AM,14.0,12.0,92,30.13,0.2,Calm,Calm,-,N/A,Fog,Light Freezing Fog,0,2013-03-10 17:56:00
10:53 AM,17.6,14.0,86,30.11,-9999.0,ENE,3.5,-,N/A,,Overcast,70,2013-03-10 18:53:00
10:54 AM,17.6,14.0,86,30.11,-9999.0,ENE,3.5,-,N/A,,Overcast,70,2013-03-10 18:54:00
10:56 AM,18.0,12.9,81,30.14,8.0,East,3.5,-,N/A,,Overcast,80,2013-03-10 18:56:00
11:56 AM,19.9,17.1,89,30.14,4.0,Calm,Calm,-,N/A,,Overcast,0,2013-03-10 19:56:00
12:34 PM,21.2,17.6,86,30.12,10.0,Calm,Calm,-,N/A,,Mostly Cloudy,0,2013-03-10 20:34:00
12:44 PM,21.2,17.6,86,30.12,10.0,Calm,Calm,-,N/A,,Scattered Clouds,0,2013-03-10 20:44:00
12:56 PM,21.9,17.1,82,30.16,10.0,Calm,Calm,-,N/A,,Clear,0,2013-03-10 20:56:00
1:56 PM,17.1,12.9,84,30.17,10.0,West,3.5,-,N/A,,Clear,260,2013-03-10 21:56:00
2:56 PM,19.9,15.1,81,30.17,10.0,Calm,Calm,-,N/A,,Clear,0,2013-03-10 22:56:00
3:56 PM,21.9,14.0,72,30.19,10.0,Calm,Calm,-,N/A,,Clear,0,2013-03-10 23:56:00
4:56 PM,21.9,12.9,68,30.20,10.0,Calm,Calm,-,N/A,,Clear,0,2013-03-11 00:56:00
5:56 PM,19.9,12.9,74,30.21,10.0,Calm,Calm,-,N/A,,Clear,0,2013-03-11 01:56:00
6:56 PM,14.0,10.0,84,30.22,10.0,Calm,Calm,-,N/A,,Clear,0,2013-03-11 02:56:00
7:56 PM,10.9,7.0,84,30.25,10.0,Calm,Calm,-,N/A,,Clear,0,2013-03-11 03:56:00
8:56 PM,12.0,7.0,80,30.27,10.0,Calm,Calm,-,N/A,,Clear,0,2013-03-11 04:56:00
9:56 PM,3.9,-0.0,84,30.28,10.0,Calm,Calm,-,N/A,,Clear,0,2013-03-11 05:56:00
10:56 PM,6.1,3.0,87,30.31,10.0,Calm,Calm,-,N/A,,Clear,0,2013-03-11 06:56:00
11:56 PM,1.0,-2.9,83,30.34,10.0,ENE,3.5,-,N/A,,Clear,60,2013-03-11 07:56:00
12:56 AM,-2.9,-8.0,79,30.37,10.0,ENE,3.5,-,N/A,,Clear,70,2013-03-11 08:56:00